McAlester, OK

4:56 PM CDT on June 24, 2017 (GMT -0500)
McAlester Regional

Weather History for KMLC - January, 2014

Change the Weather History Date:

Sunday, January 12, 2014

  Actual Average Record
Temperature  
Mean Temperature 50 °F -  
Max Temperature 70 °F 46 °F 75 °F (2000)
Min Temperature 30 °F 25 °F 0 °F (1973)
Degree Days  
Heating Degree Days 15    
Moisture  
Dew Point 30 °F    
Average Humidity 39    
Maximum Humidity 85    
Minimum Humidity 18    
Precipitation  
Precipitation 0.00 in - - ()
Sea Level Pressure  
Sea Level Pressure 29.83 in    
Wind  
Wind Speed 11 mph (South)    
Max Wind Speed 24 mph    
Max Gust Speed 43 mph    
Visibility 10 miles    
Events      
Averages and records for this station are not official NWS values.
T = Trace of Precipitation, MM = Missing Value Source: NWS Daily Summary

Daily Weather History Graph

Daily Weather History Graph

Search for Another Location

Airport or City:

Trip Planner

Search our weather history database for the weather conditions in past years. The results will help you decide how hot, cold, wet, or windy it might be!

Date:

Astronomy

Jan. 12, 2014 Rise Set
Actual Time 7:30 AM CST 5:32 PM CST
Civil Twilight 7:03 AM CST 5:59 PM CST
Nautical Twilight 6:32 AM CST 6:31 PM CST
Astronomical Twilight 6:01 AM CST 7:01 PM CST
Moon 3:00 PM CST (1/12) 4:31 AM CST (1/12)
Length of Visible Light 10h 56m
Length of Day
10h 01m
Waxing Gibbous, 90% of the Moon is Illuminated
Jan 12
Waxing Gibbous
Jan 15
Full
Jan 23
Last Quarter
Jan 30
New
Feb 6
First Quarter

Hourly Weather History & Observations

Time (CST) Temp. Windchill Dew Point Humidity Pressure Visibility Wind Dir Wind Speed Gust Speed Precip Events Conditions
12:53 AM 30.9 °F - 27.0 °F 85% 29.99 in 10.0 mi Calm Calm - N/A   Clear
1:53 AM 39.9 °F 36.7 °F 26.1 °F 58% 29.98 in 10.0 mi SSW 4.6 mph - N/A   Clear
2:53 AM 46.9 °F - 25.0 °F 42% 29.96 in 10.0 mi South 6.9 mph - N/A   Partly Cloudy
3:53 AM 48.0 °F - 24.1 °F 39% 29.95 in 10.0 mi South 9.2 mph 17.3 mph N/A   Clear
4:53 AM 48.0 °F - 24.1 °F 39% 29.94 in 10.0 mi South 10.4 mph 19.6 mph N/A   Clear
5:53 AM 48.0 °F - 24.1 °F 39% 29.95 in 10.0 mi South 10.4 mph 18.4 mph N/A   Clear
6:53 AM 46.9 °F - 26.1 °F 44% 29.94 in 10.0 mi South 8.1 mph 17.3 mph N/A   Partly Cloudy
7:53 AM 48.0 °F - 27.0 °F 44% 29.94 in 10.0 mi South 10.4 mph 20.7 mph N/A   Clear
8:53 AM 52.0 °F - 28.0 °F 40% 29.94 in 10.0 mi South 12.7 mph 20.7 mph N/A   Clear
9:53 AM 59.0 °F - 26.1 °F 28% 29.92 in 10.0 mi South 16.1 mph 25.3 mph N/A   Partly Cloudy
10:53 AM 61.0 °F - 25.0 °F 25% 29.89 in 10.0 mi South 18.4 mph 32.2 mph N/A   Clear
11:53 AM 64.0 °F - 26.1 °F 24% 29.83 in 10.0 mi South 18.4 mph 33.4 mph N/A   Clear
12:53 PM 69.1 °F - 24.1 °F 18% 29.78 in 10.0 mi SSW 24.2 mph 39.1 mph N/A   Partly Cloudy
1:53 PM 69.1 °F - 26.1 °F 20% 29.75 in 10.0 mi SSW 23.0 mph 42.6 mph N/A   Clear
2:53 PM 70.0 °F - 28.0 °F 21% 29.71 in 10.0 mi South 21.9 mph 36.8 mph N/A   Mostly Cloudy
3:53 PM 70.0 °F - 28.9 °F 22% 29.70 in 10.0 mi SSW 17.3 mph 34.5 mph N/A   Clear
4:53 PM 66.0 °F - 30.9 °F 27% 29.71 in 10.0 mi South 15.0 mph 28.8 mph N/A   Partly Cloudy
5:53 PM 64.0 °F - 33.1 °F 31% 29.70 in 10.0 mi South 15.0 mph 31.1 mph N/A   Partly Cloudy
6:53 PM 62.1 °F - 32.0 °F 32% 29.71 in 10.0 mi South 13.8 mph 24.2 mph N/A   Clear
7:53 PM 61.0 °F - 34.0 °F 36% 29.71 in 10.0 mi South 17.3 mph 31.1 mph N/A   Partly Cloudy
8:53 PM 60.1 °F - 37.0 °F 42% 29.71 in 10.0 mi South 19.6 mph 33.4 mph N/A   Partly Cloudy
9:53 PM 59.0 °F - 41.0 °F 51% 29.70 in 10.0 mi South 16.1 mph 26.5 mph N/A   Partly Cloudy
10:53 PM 59.0 °F - 44.1 °F 58% 29.70 in 10.0 mi South 15.0 mph 34.5 mph N/A   Partly Cloudy
11:53 PM 59.0 °F - 46.0 °F 62% 29.72 in 10.0 mi SSW 17.3 mph 27.6 mph N/A   Partly Cloudy